MMB32 YLMQ-YSTW

Flight info

Callsign MMB32
Flight time N/A
Altitude 8000
Route YCNK DCT BAXT DCT YSGT DCT YSCO DCT MUI DCT WEK/N0167F070 DCT GST DCT DUA
Aircraft DA62/L-SDFGRY/C

Departure

Time 2026-05-01 09:53
Airport Lake Macquarie Airport (YLMQ)

Arrival

Time N/A
Airport Tamworth Airport (YSTW)
Time Latitude Longitude Altitude Speed Heading
2026-05-01 09:50 -33.06549 151.65086 12 ft 0 kts 14°
2026-05-01 09:50 -33.06547 151.65086 12 ft 3 kts 12°
2026-05-01 09:51 -33.06552 151.64961 7 ft 33 kts 265°
2026-05-01 09:51 -33.06586 151.64655 9 ft 35 kts 263°
2026-05-01 09:51 -33.06618 151.64383 7 ft 31 kts 263°
2026-05-01 09:51 -33.06646 151.64211 8 ft 16 kts 249°
2026-05-01 09:52 -33.06647 151.64186 9 ft 0 kts 348°
2026-05-01 09:52 -33.06638 151.64210 8 ft 6 kts 92°
2026-05-01 09:52 -33.06635 151.64240 8 ft 0 kts 83°
2026-05-01 09:52 -33.06632 151.64263 7 ft 20 kts 82°
2026-05-01 09:53 -33.06585 151.64665 9 ft 73 kts 79°
2026-05-01 09:53 -33.06435 151.65289 165 ft 87 kts 53°
2026-05-01 09:53 -33.05897 151.65286 512 ft 89 kts 317°
2026-05-01 09:53 -33.05832 151.64636 832 ft 77 kts 273°
2026-05-01 09:54 -33.05776 151.63920 1000 ft 92 kts 277°
2026-05-01 09:54 -33.05686 151.63148 1268 ft 94 kts 306°
2026-05-01 09:54 -33.05258 151.62592 1582 ft 91 kts 320°
2026-05-01 09:54 -33.04805 151.62051 1896 ft 87 kts 329°
2026-05-01 09:55 -33.04289 151.61595 2025 ft 112 kts 330°
2026-05-01 09:55 -33.03578 151.60913 1940 ft 147 kts 324°
2026-05-01 09:55 -33.02785 151.60076 2098 ft 152 kts 323°
2026-05-01 09:55 -33.02000 151.59224 2312 ft 154 kts 323°
2026-05-01 09:56 -33.01205 151.58365 2532 ft 154 kts 322°
2026-05-01 09:56 -33.00408 151.57501 2752 ft 154 kts 322°
2026-05-01 09:56 -32.99617 151.56646 2951 ft 155 kts 323°
2026-05-01 09:56 -32.98823 151.55788 3168 ft 155 kts 322°
2026-05-01 09:57 -32.98016 151.54917 3390 ft 155 kts 322°
2026-05-01 09:57 -32.97218 151.54054 3598 ft 155 kts 322°
2026-05-01 09:57 -32.96412 151.53185 3811 ft 156 kts 322°
2026-05-01 09:57 -32.95611 151.52320 4041 ft 156 kts 322°
2026-05-01 09:58 -32.94806 151.51450 4289 ft 156 kts 322°
2026-05-01 09:58 -32.93999 151.50582 4500 ft 157 kts 322°
2026-05-01 09:58 -32.93142 151.49716 4538 ft 166 kts 334°
2026-05-01 09:58 -32.92024 151.49542 4538 ft 166 kts 18°
2026-05-01 09:59 -32.91139 151.50365 4521 ft 168 kts 60°
2026-05-01 09:59 -32.90999 151.51742 4545 ft 174 kts 102°
2026-05-01 09:59 -32.91716 151.52914 4551 ft 183 kts 139°
2026-05-01 09:59 -32.92782 151.53744 4590 ft 183 kts 144°
2026-05-01 10:00 -32.93869 151.54538 4625 ft 183 kts 145°
2026-05-01 10:00 -32.94952 151.55330 4666 ft 183 kts 144°
2026-05-01 10:00 -32.96039 151.56125 4675 ft 184 kts 144°
2026-05-01 10:00 -32.97150 151.56939 4550 ft 192 kts 145°
2026-05-01 10:01 -32.98396 151.57530 4363 ft 181 kts 161°
2026-05-01 10:01 -32.99445 151.57826 4100 ft 133 kts 162°
2026-05-01 10:01 -33.00275 151.58062 3842 ft 121 kts 153°
2026-05-01 10:01 -33.01027 151.58431 3594 ft 114 kts 151°
2026-05-01 10:02 -33.01731 151.58836 3233 ft 113 kts 145°
2026-05-01 10:02 -33.02363 151.59281 2746 ft 100 kts 136°
2026-05-01 10:02 -33.02920 151.59752 2245 ft 96 kts 136°
2026-05-01 10:02 -33.03276 151.60054 1963 ft 90 kts 132°
2026-05-01 10:03 -33.03671 151.60517 1676 ft 81 kts 127°
2026-05-01 10:03 -33.04014 151.61050 1356 ft 80 kts 107°
2026-05-01 10:03 -33.04481 151.61785 906 ft 90 kts 130°
2026-05-01 10:03 -33.04949 151.62309 565 ft 90 kts 134°
2026-05-01 10:04 -33.05405 151.62776 291 ft 87 kts 144°
2026-05-01 10:04 -33.05988 151.62912 95 ft 85 kts 168°
2026-05-01 10:04 -33.06613 151.63021 627 ft 146 kts 168°
2026-05-01 10:04 -33.07352 151.63387 399 ft 89 kts 113°
2026-05-01 10:05 -33.06991 151.63910 221 ft 107 kts 30°
2026-05-01 10:05 -33.06469 151.64347 225 ft 90 kts 64°
2026-05-01 10:05 -33.06301 151.65086 244 ft 95 kts 75°
2026-05-01 10:05 -33.06144 151.65866 166 ft 99 kts 76°
2026-05-01 10:06 -33.06413 151.66482 267 ft 101 kts 163°
2026-05-01 10:06 -33.06990 151.66038 256 ft 114 kts 249°
2026-05-01 10:06 -33.06694 151.65285 155 ft 101 kts 329°
2026-05-01 10:06 -33.06591 151.64641 720 ft 135 kts 243°